Location: �terpigny
(49.8910°N, 2.9249°E)
Time: 11:51:11
(UTC+00:00)

Spot 2 - Pass Details

Date: 24 October 2021
Orbit: 570 x 773 km, 98.7° (Epoch: 05 December)

Event Time Altitude Azimuth Distance (km) Brightness Sun altitude
Rises 17:45:50 0° 147° (SSE) 2,814 7.2 -11.3°
Reaches altitude 10° 17:47:59 10° 142° (SE) 1,939 6.3 -11.6°
Maximum altitude 17:52:02 48° 68° (ENE) 818 4.3 -12.3°
Drops below altitude 10° 17:56:19 10° 354° (N) 2,059 6.8 -13.0°
Sets 17:58:39 0° 349° (N) 3,009 7.7 -13.4°
